Theta_e
358 356 356 353 323 320 311 316 324 320 323 327 332 329 327 330 324 317 344 347 350 352 358 361 366 366 363 365 365 364 363 361 362 362 362 361 360 360 360 360 361 360 360 359 359 359 359 360 359
354 354 354 345 321 306 308 321 319 325 329 330 330 330 328 326 337 339 339 347 349 353 355 359 365 366 362 363 365 364 362 362 361 361 360 361 362 360 359 359 359 359 359 359 359 359 360 360 360
358 361 344 333 312 306 309 319 321 329 331 328 327 331 330 330 338 339 346 348 349 350 355 358 367 367 362 361 362 363 363 361 362 361 361 360 360 360 359 359 360 360 359 360 359 360 360 361 361
355 353 346 317 309 315 316 320 324 326 328 330 329 327 334 341 340 344 348 349 349 352 357 364 367 365 364 363 362 363 360 360 361 361 361 359 360 360 360 360 361 362 361 360 361 360 361 362 361
347 347 327 312 313 319 321 323 326 325 326 328 330 327 329 340 345 346 347 351 352 354 359 361 368 367 364 363 362 361 360 360 361 361 362 361 360 360 361 362 361 361 360 361 360 360 360 360 361
332 337 313 307 317 322 324 324 328 326 328 329 329 328 329 341 343 344 347 351 353 354 357 359 365 366 365 363 361 362 360 361 362 362 362 362 360 360 360 359 360 360 361 361 361 360 358 359 359
329 327 313 312 315 319 322 327 325 325 326 328 332 325 328 337 344 346 347 351 352 353 354 356 357 360 363 362 361 361 361 361 362 363 361 360 361 361 361 358 358 360 361 361 360 360 360 359 359
331 324 317 315 315 316 325 326 329 327 327 336 333 323 322 331 344 348 352 351 350 352 353 353 354 355 354 356 362 361 361 360 360 361 361 361 361 360 360 363 363 360 360 360 359 359 361 360 359
336 318 313 315 318 320 327 324 328 330 331 333 334 331 333 336 344 344 343 344 345 349 349 350 351 351 351 354 359 364 361 363 363 361 362 360 353 354 356 359 360 359 359 361 360 359 358 359 359
325 318 317 325 325 325 326 327 328 328 328 329 330 334 336 336 334 336 337 337 338 340 343 346 348 348 349 357 356 355 355 356 357 356 355 354 354 355 356 359 363 361 361 361 361 361 359 358 353
327 319 325 327 329 331 326 324 330 328 322 328 327 331 334 333 332 336 337 339 339 341 344 344 346 349 350 352 356 355 353 352 351 353 354 355 357 357 357 357 355 353 357 354 358 356 357 356 352
321 329 329 325 332 330 328 332 328 328 327 333 333 334 333 332 331 331 333 335 336 337 343 345 349 349 350 349 351 352 354 355 352 353 357 354 353 353 352 354 354 353 356 353 354 352 354 354 352
322 326 329 330 329 331 332 329 327 327 333 334 334 334 332 331 332 334 335 337 337 336 342 343 347 349 348 345 346 352 354 354 353 354 357 354 350 350 354 353 355 355 355 353 350 354 352 351 353
326 325 325 324 327 330 326 326 330 328 332 332 332 330 331 331 332 332 336 336 336 338 343 347 348 350 348 347 350 350 349 352 351 354 356 355 354 356 355 354 354 355 357 357 355 352 351 350 352
325 320 324 325 324 324 326 322 326 330 331 330 330 331 332 332 333 332 337 337 338 339 345 346 347 349 348 349 349 351 349 350 349 352 357 354 355 357 355 353 353 356 356 356 353 352 350 354 350
322 319 316 324 325 328 322 313 323 328 328 327 329 331 331 331 331 333 337 339 339 339 340 347 350 348 349 348 349 352 351 349 352 353 360 358 357 357 354 355 353 355 353 355 356 353 346 348 341
317 311 313 316 326 325 323 316 325 328 328 326 327 328 329 329 330 333 336 339 339 340 342 340 345 346 349 351 350 350 352 352 354 356 360 359 359 359 355 356 353 354 352 349 347 344 340 345 344
310 311 313 313 319 323 320 318 320 326 329 327 326 326 326 329 330 333 335 338 339 342 343 339 343 343 347 353 351 350 352 349 350 358 353 349 352 358 356 355 355 354 351 345 342 341 341 340 343
317 314 313 317 321 319 320 318 319 328 331 327 326 326 327 329 332 333 335 337 340 341 340 342 340 345 351 348 347 348 348 348 352 356 353 354 354 357 355 355 354 355 345 343 340 338 337 340 345
317 314 314 319 321 317 318 317 325 329 329 330 328 328 329 330 332 333 334 335 339 339 339 340 344 350 352 350 349 349 349 351 355 355 353 359 358 355 356 354 354 351 346 338 336 338 337 336 336
308 313 313 313 316 318 315 315 319 326 326 328 331 332 331 332 332 334 335 335 337 339 340 340 347 351 350 351 350 353 356 355 354 354 352 355 356 355 356 355 353 345 341 339 340 340 336 333 338
301 314 318 317 310 304 314 301 313 315 317 325 327 331 332 333 335 336 337 337 338 339 342 342 351 349 348 352 349 349 345 345 343 342 345 346 357 356 359 357 352 343 344 345 342 346 342 336 331
306 313 315 316 310 309 310 303 308 315 318 322 323 331 332 334 335 336 337 338 341 343 342 344 351 350 348 348 353 350 349 343 337 336 335 343 355 357 358 356 350 345 345 345 345 342 338 336 332
311 310 308 307 304 297 303 305 306 310 314 320 322 328 333 334 335 337 339 339 341 346 346 347 346 352 351 351 354 354 350 342 343 343 343 346 352 355 354 357 350 347 346 346 344 342 338 334 333
307 301 294 294 295 295 301 303 305 311 317 322 322 326 329 334 334 335 336 337 339 345 347 351 349 350 352 353 353 355 355 351 346 344 332 337 351 353 352 355 350 347 347 347 346 341 336 331 331
301 299 294 291 293 297 304 300 306 315 317 320 322 322 325 333 334 335 335 338 339 342 347 351 352 353 353 355 355 356 356 356 347 341 338 345 351 350 354 356 350 347 348 348 345 342 336 334 329
301 298 303 295 296 296 302 306 311 313 319 322 323 325 322 328 334 335 336 339 340 342 345 352 352 354 357 358 359 359 358 358 357 353 351 352 350 353 354 356 352 348 347 349 346 337 332 330 329
302 305 297 296 291 290 297 301 303 312 316 319 323 324 327 326 333 335 336 339 340 342 345 353 354 356 357 357 359 360 361 360 357 357 350 350 350 354 354 354 352 346 347 349 342 335 332 328 329
299 297 300 298 296 293 295 301 313 314 317 315 317 325 329 325 328 335 335 337 340 341 343 353 354 356 356 358 358 359 361 362 360 359 352 351 354 355 353 354 350 346 348 348 341 335 331 327 325
302 301 300 296 296 296 299 301 316 317 319 319 321 322 322 322 325 331 334 336 338 339 341 352 354 356 357 357 358 359 360 361 360 359 357 355 358 356 355 354 351 349 348 346 336 333 330 326 323
Wind_Speed
4 8 3 3 6 4 5 9 3 13 13 7 17 16 12 13 4 7 13 18 18 13 9 10 15 16 17 16 16 15 16 15 16 14 15 12 13 12 13 11 11 10 8 7 6 6 6 7 5
5 8 5 5 3 8 5 9 14 16 16 20 22 19 16 11 13 19 16 19 18 14 10 8 13 15 16 14 15 13 15 15 14 13 12 10 10 11 10 11 11 10 8 6 7 7 7 7 6
10 7 1 3 0 8 7 9 8 16 22 22 13 13 8 12 14 13 18 20 17 14 11 11 13 15 15 14 12 13 14 13 13 11 10 9 9 10 10 10 10 11 9 8 8 9 8 6 7
11 4 4 2 6 7 11 9 10 21 20 18 13 15 11 14 8 15 20 19 15 13 12 14 14 15 14 15 11 12 13 12 11 11 10 10 8 9 9 10 10 11 9 9 9 8 7 9 8
10 5 4 6 5 13 13 11 14 19 22 19 22 21 16 13 21 25 22 19 19 13 12 12 13 13 13 13 11 11 11 10 11 9 9 9 9 9 9 9 10 10 9 8 9 8 7 8 8
3 3 1 5 13 5 4 16 22 22 21 18 22 19 9 21 24 20 20 20 17 17 13 11 13 12 11 11 11 10 8 9 9 9 9 9 9 7 9 8 7 9 10 8 8 8 7 6 7
7 3 9 7 10 6 12 17 17 19 17 16 17 16 7 22 23 23 19 19 17 15 13 10 8 10 11 10 10 9 9 8 9 9 9 7 9 8 7 7 7 7 8 8 8 7 8 7 6
5 2 10 6 9 14 13 14 19 18 16 21 24 9 8 6 26 23 21 18 18 16 14 10 7 6 6 6 10 10 9 8 8 7 8 8 8 7 8 7 6 7 8 7 7 6 6 6 7
3 2 3 6 8 12 14 12 8 5 19 17 11 19 14 11 26 23 20 20 16 15 15 13 11 9 8 7 8 11 11 8 8 8 8 7 3 5 7 8 11 9 8 8 9 9 7 7 8
5 3 5 6 8 16 18 5 11 7 12 20 21 20 16 10 10 18 21 18 17 17 16 15 14 13 11 9 7 6 6 4 5 4 5 4 4 5 7 9 11 9 7 8 9 9 5 6 3
6 5 10 11 11 20 16 9 5 11 12 20 25 22 18 8 8 21 16 18 18 18 14 15 13 14 11 8 6 4 3 3 3 6 5 6 4 4 3 2 3 3 7 2 5 3 3 5 4
18 22 29 18 25 9 24 10 11 8 18 23 22 20 15 9 8 10 12 12 11 11 14 15 12 11 10 6 6 5 4 5 6 5 7 4 1 2 4 4 4 4 3 4 5 4 7 10 8
14 16 15 27 21 24 5 8 14 15 19 21 21 19 13 10 9 9 15 13 10 8 10 8 8 9 10 7 6 7 7 5 5 4 5 5 2 4 4 3 4 4 4 4 4 5 6 7 9
20 31 25 13 10 3 11 10 12 14 17 19 20 16 13 12 12 7 15 14 11 8 13 12 9 8 6 4 2 7 4 4 4 4 5 7 5 3 2 2 0 2 4 5 4 5 5 6 5
15 25 14 3 10 7 3 7 6 4 15 16 15 16 14 12 12 10 16 16 14 7 13 11 10 8 6 4 2 5 2 5 4 4 6 5 5 4 2 1 2 2 3 4 3 5 2 3 2
8 10 9 4 13 8 10 9 5 2 14 14 15 14 14 11 11 9 14 16 13 9 10 13 12 8 7 4 2 1 1 4 3 3 4 6 6 4 2 1 2 4 3 2 3 2 3 3 2
3 6 12 7 19 5 7 9 8 9 7 15 14 13 12 9 8 8 13 15 14 10 10 9 11 11 9 6 3 2 3 4 3 5 3 3 4 5 5 1 3 3 3 2 3 3 3 3 3
9 7 8 9 6 10 9 14 12 5 4 15 14 11 10 10 9 10 11 13 14 14 11 9 10 11 10 7 4 2 3 3 5 7 4 4 3 3 5 1 2 0 1 2 3 4 3 1 1
21 12 10 3 10 12 19 9 5 8 6 12 15 12 11 9 9 11 10 13 12 16 11 9 9 10 7 5 4 1 3 3 3 8 9 6 6 3 5 2 3 2 3 3 3 2 4 3 1
13 15 9 6 8 20 11 5 16 19 24 22 18 16 14 10 12 12 11 13 15 15 12 9 9 13 8 6 4 3 2 3 4 5 5 7 6 4 4 3 3 2 3 4 3 4 2 2 2
8 16 7 12 19 12 4 3 17 21 10 5 12 20 18 18 16 17 15 17 15 16 15 11 9 14 9 8 4 1 1 1 4 2 3 1 6 5 5 6 1 3 3 3 3 4 4 2 2
7 6 22 10 7 4 7 4 6 9 7 7 15 20 20 19 16 18 17 17 17 17 16 14 11 11 8 8 6 5 5 3 3 4 3 3 4 5 6 5 4 4 3 3 3 3 3 3 4
10 10 16 7 9 2 14 4 7 10 4 20 18 23 22 22 21 22 21 18 21 18 16 15 13 13 8 7 6 5 4 4 3 2 4 6 3 3 4 5 5 4 2 4 6 5 5 3 2
6 8 4 4 6 1 3 6 5 10 17 25 16 16 23 21 21 20 21 19 17 20 18 16 16 15 13 10 8 7 8 7 4 1 3 3 3 3 3 6 5 5 4 4 4 4 5 4 4
1 4 4 5 3 6 6 9 6 16 8 17 15 13 16 22 22 18 19 19 15 22 20 17 17 14 14 13 9 8 7 10 11 8 4 4 3 2 4 4 5 4 4 5 5 4 4 3 3
7 8 7 8 5 1 5 7 8 19 4 9 8 8 8 17 16 17 15 18 15 19 20 19 17 15 14 13 12 8 8 5 7 7 5 4 4 5 6 6 6 6 6 5 4 3 3 5 4
11 5 12 2 5 4 3 1 7 7 8 10 12 14 18 16 15 15 10 17 13 15 17 19 18 16 15 14 12 11 8 8 8 8 8 6 6 5 7 7 6 7 6 6 5 4 3 3 2
8 7 3 3 1 1 4 2 5 9 5 9 15 15 12 14 11 13 11 16 15 15 15 17 19 18 17 15 12 10 11 9 7 6 9 8 7 7 8 7 6 6 5 6 6 4 4 6 4
3 5 5 4 6 6 5 6 5 14 10 13 11 9 10 18 8 13 11 12 15 14 14 16 17 17 15 13 13 12 10 11 9 6 10 9 7 9 9 8 7 7 6 6 6 6 6 7 6
6 10 7 7 7 4 7 5 6 11 12 15 16 15 14 27 16 9 9 6 8 13 15 16 17 17 16 15 13 13 12 10 10 7 10 9 8 10 10 9 8 7 7 7 8 7 6 6 5
Wind_Direction
220 278 275 264 53 79 67 15 78 88 74 58 73 80 92 30 115 143 149 133 134 131 129 119 113 115 112 111 102 100 96 95 94 95 96 96 101 108 118 126 131 139 151 151 145 143 144 139 136
202 237 322 315 71 80 63 115 83 84 92 91 85 84 62 69 84 124 133 132 128 134 125 120 117 114 114 109 109 102 99 94 96 94 95 101 99 110 111 121 122 133 141 157 162 155 153 150 155
316 260 196 324 20 103 105 88 83 114 95 93 88 88 79 107 112 125 122 123 133 130 128 133 131 126 126 118 111 110 101 100 101 102 107 111 110 113 123 122 121 126 131 128 136 142 149 159 147
322 287 293 332 53 128 126 122 104 94 94 100 106 65 97 126 108 131 131 136 133 126 134 140 140 134 133 124 122 107 104 102 100 107 114 112 114 120 135 124 127 124 128 126 130 133 143 141 155
14 304 278 89 118 59 71 95 81 105 95 88 102 110 106 109 131 139 147 137 132 129 138 141 143 139 141 129 124 115 113 115 113 116 124 123 127 123 129 125 135 129 132 132 138 139 143 145 151
20 264 64 68 93 93 79 93 92 95 102 107 101 111 123 139 144 148 145 135 134 136 137 140 142 140 139 138 132 127 128 129 129 132 132 131 142 140 130 142 143 139 142 141 151 149 161 167 165
185 178 110 108 81 105 107 110 106 116 127 122 122 117 143 150 155 153 141 131 134 134 135 135 145 150 146 151 139 142 151 145 142 142 146 162 155 151 150 158 152 150 151 153 161 169 172 177 186
174 210 99 104 104 73 68 91 126 139 135 126 128 139 154 183 141 130 139 140 141 142 138 146 157 155 157 163 159 162 162 165 158 152 180 183 165 169 176 169 173 174 173 170 174 193 193 199 218
207 63 75 117 104 104 92 87 98 113 137 140 166 136 149 172 134 144 144 138 142 148 154 157 164 171 175 169 178 178 173 178 182 187 201 197 187 196 207 190 199 197 192 189 191 198 204 209 238
90 119 90 148 124 117 73 353 146 120 126 122 131 129 145 170 146 139 137 152 148 158 161 166 173 176 174 170 169 175 179 181 192 198 221 208 222 205 190 213 197 210 214 216 223 208 215 236 215
158 93 62 124 134 118 133 184 227 149 120 135 136 141 158 173 168 142 153 154 158 168 166 171 174 176 171 160 162 184 186 172 206 214 195 206 218 214 228 208 194 183 208 237 244 195 151 265 254
87 41 15 354 6 46 18 174 152 126 138 134 136 143 162 167 165 144 147 136 152 153 149 159 162 142 153 167 165 183 194 184 193 195 202 152 198 180 227 214 211 190 191 213 216 179 166 225 233
77 92 13 333 348 26 319 56 99 99 125 130 137 148 162 164 178 179 156 139 137 146 147 142 130 144 171 164 171 168 200 182 173 186 188 166 168 222 231 216 199 195 196 204 232 210 194 207 219
115 115 142 242 5 82 303 306 109 111 124 135 144 156 167 176 184 181 150 147 154 159 145 140 132 131 150 131 132 164 172 161 157 190 194 167 189 197 183 319 262 182 182 194 186 192 194 198 200
69 91 77 158 170 229 6 326 116 80 132 143 153 163 178 187 183 177 150 152 161 160 139 141 134 132 141 141 222 141 170 148 190 185 190 174 132 148 159 328 352 274 230 210 218 223 251 243 228
108 91 107 238 208 357 50 283 308 175 151 158 169 175 181 192 180 170 152 155 160 150 141 150 149 146 147 161 216 313 201 153 185 225 171 169 147 146 127 9 281 249 260 221 234 220 255 268 36
324 88 355 244 193 155 197 260 232 164 188 167 174 178 180 185 171 165 152 153 162 147 144 158 149 157 156 174 195 238 294 234 96 194 114 80 182 175 137 146 263 331 10 346 106 45 75 50 29
113 99 200 255 178 255 223 235 275 160 225 172 175 172 177 181 167 163 151 149 155 148 146 162 148 161 158 153 163 253 270 271 98 45 14 331 296 166 119 347 256 204 90 350 47 46 8 65 156
159 177 167 244 246 263 197 255 274 352 272 222 178 171 178 178 167 162 162 152 141 153 150 161 137 162 139 150 148 196 247 278 94 146 147 260 253 113 101 37 328 357 138 123 67 37 42 347 87
163 143 209 200 329 326 165 159 181 188 233 191 176 173 173 180 160 167 165 153 150 158 161 154 143 157 147 153 167 179 176 248 143 139 183 171 158 167 125 105 23 90 113 76 51 56 12 337 4
259 165 153 198 191 249 343 179 173 215 244 107 212 175 178 183 171 171 177 162 153 158 165 165 157 163 158 162 155 194 125 27 88 50 356 262 157 161 145 135 134 79 146 108 86 71 66 36 318
282 271 176 190 97 239 122 305 209 194 246 58 250 185 187 181 176 173 175 165 165 169 168 169 156 161 166 159 166 171 169 134 208 199 216 21 210 164 134 130 127 98 119 107 102 66 56 91 39
241 285 176 146 131 143 291 126 237 123 117 195 233 183 187 182 181 175 179 172 171 168 172 174 164 163 165 170 163 181 173 128 205 78 16 3 235 148 138 129 122 61 118 99 93 64 51 54 87
288 331 328 327 162 78 294 105 323 183 191 216 219 187 184 181 182 180 179 179 165 170 172 172 173 171 166 176 173 188 164 150 122 160 186 225 230 110 139 105 125 144 135 107 106 97 78 48 64
328 353 336 331 344 220 80 58 150 271 188 190 203 204 172 179 178 179 176 179 173 171 173 170 174 176 172 171 174 186 208 150 157 192 182 185 176 158 171 143 149 148 157 145 125 121 104 77 59
226 184 169 221 225 269 4 165 229 231 183 129 53 143 110 178 168 171 171 173 178 168 168 170 172 174 173 171 179 179 195 165 177 188 186 186 187 173 177 172 165 168 159 140 135 83 111 106 88
265 232 226 261 294 41 162 205 339 3 56 71 65 53 20 339 151 159 144 165 167 167 166 165 173 177 174 178 170 180 182 191 180 187 192 186 188 176 175 172 168 162 159 150 134 124 124 99 105
175 244 330 334 280 299 324 32 204 117 81 79 80 58 349 346 142 159 161 165 171 168 170 164 171 174 178 178 178 172 182 188 191 174 175 178 195 160 159 163 157 161 159 142 120 125 102 75 68
272 291 273 159 142 142 148 272 204 145 169 119 96 82 28 305 308 168 175 161 174 169 161 163 169 171 174 176 178 176 178 186 197 177 180 182 169 161 164 162 147 165 159 135 117 135 122 113 112
201 213 215 124 277 184 139 264 149 120 134 122 122 116 175 236 252 287 168 160 145 172 172 166 172 174 180 180 173 181 179 179 190 183 186 180 166 169 162 155 153 160 162 143 137 146 135 133 126